Regional Weather Roundup
Issued by NWS Wilmington, NC

Home | Current Version | Previous Version | Text Only | Print | Product List | Glossary On
Versions: 1 2 3 4 5 6 7 8 9 10 11 12 13 14 15 16 17 18 19 20 21 22 23 24 25 26 27 28 29 30 31 32 33 34 35 36 37 38 39 40 41 42 43 44 45 46 47 48 49 50
000
ASUS42 KILM 180410
RWRILM
RWRILM
REGIONAL HOURLY WEATHER ROUNDUP
NATIONAL WEATHER SERVICE WILMINGTON NC
1100 PM EST WED DEC 17 2014

NOTE: "FAIR" INDICATES FEW OR NO CLOUDS BELOW 12,000 FEET WITH NO
SIGNIFICANT WEATHER AND/OR OBSTRUCTIONS TO VISIBILITY.

...............WFO WILMINGTON COUNTY WARNING AREA...............

......COASTAL NC AND SC COUNTIES......

CITY           SKY/WX    TMP DP  RH WIND       PRES   REMARKS
WILMINGTON     MOCLDY    43  41  93 CALM      30.09F
SOUTHPORT      PTCLDY    44  42  93 CALM      30.11S
N MYRTLE BEACH PTCLDY    43  41  93 CALM      30.10S
MYRTLE BEACH   CLEAR     46  39  76 W5        30.11F

......INLAND NC AND SC COUNTIES.......

CITY           SKY/WX    TMP DP  RH WIND       PRES   REMARKS
LUMBERTON      PTCLDY    40  37  89 CALM      30.08F
ELIZABETHTOWN  PTCLDY    42  39  91 CALM      30.09S
WHITEVILLE     PTCLDY    41  39  91 CALM      30.10R
FLORENCE       PTCLDY    42  39  89 CALM      30.10S FOG
DARLINGTON     PTCLDY    39  34  81 CALM      30.10F

....................REST OF NORTH CAROLINA......................

.........EASTERN NC.........

CITY           SKY/WX    TMP DP  RH WIND       PRES   REMARKS
CAPE HATTERAS  MOCLDY    49  46  90 W6        30.06S
JACKSONVILLE   CLOUDY    41  37  87 CALM      30.09S
MOREHEAD CITY  MOCLDY    50  47  89 W5        30.08S
KENANSVILLE    CLOUDY    40  39  95 CALM      30.09S
NEW BERN       CLOUDY    48  40  73 SW6       30.09R
ELIZABETH CITY MOCLDY    44  37  76 SW7       30.04S

.........CENTRAL NC.........

CITY           SKY/WX    TMP DP  RH WIND       PRES   REMARKS
RALEIGH DURHAM PTCLDY    41  34  76 CALM      30.08S
ROCKY MOUNT    MOCLDY    41  36  82 CALM      30.07S
ROANOKE RAPIDS NOT AVBL
FAYETTEVILLE   MOCLDY    41  38  89 SW5       30.07F
HOFFMAN        MOCLDY    37  36  97 N1        30.10S

.........WESTERN NC.........

CITY           SKY/WX    TMP DP  RH WIND       PRES   REMARKS
CHARLOTTE      PTCLDY    45  35  68 CALM      30.09S
GREENSBORO     MOCLDY    43  29  57 CALM      30.07R
HICKORY        NOT AVBL
BOONE          NOT AVBL
ASHEVILLE      NOT AVBL

.....................REST OF SOUTH CAROLINA.....................

.........EASTERN SC.........

CITY           SKY/WX    TMP DP  RH WIND       PRES   REMARKS
CHARLESTON     PTCLDY    47  42  83 CALM      30.12S
BEAUFORT MCAS  PTCLDY    44  41  89 SW5       30.12F
HILTON HEAD    PTCLDY    46  45  93 CALM      30.14S

.........CENTRAL SC.........

CITY           SKY/WX    TMP DP  RH WIND       PRES   REMARKS
COLUMBIA       PTCLDY    39  35  86 CALM      30.10S
ORANGEBURG     CLEAR     41  38  89 CALM      30.11S
SUMTER SHAW    CLEAR     41  37  84 SW2       30.09S

.........WESTERN SC.........

CITY           SKY/WX    TMP DP  RH WIND       PRES   REMARKS
GREENVILLE     NOT AVBL
ROCK HILL      PTCLDY    40  37  89 SW3       30.09S
ANDERSON       PTCLDY    41  37  86 SW3       30.10R
CLEMSON        NOT AVBL
GREENWOOD      PTCLDY    44  38  79 W7        30.11F


...................COASTAL AND OFFSHORE REPORTS..................

................LOCAL PIERS AND NC RESERVE................


STATION/POSITION TIME  SKY/WX   TEMP    WIND        PRES    VSBY
                                AIR SEA DIR/SP/G
                 (UTC)          (F)     (DEG/KT/KT) (MB)    (MI)
JOHNY MRCER PIER 0400            50 58  260/  5/  6 1018.4F
NC RESRV MASNBRO 0300            48     250/  1     1019.0S
OCEAN CREST PIER 0400            51 54  270/  4/  4 1018.5S
SPRINGMAID  PIER 0400            52 53  250/  8/ 11 1019.2F


................COASTAL AND OFFSHORE BUOYS................


STATION/POSITION TIME  SKY/WX   TEMP    WIND        PRES    VSBY
                                AIR SEA DIR/SP/G
                 (UTC)          (F)     (DEG/KT/KT) (MB)    (MI)
DIMNDSHOAL 41025 0400            57                 1018.2R
WVE H/P(F/S)=  3/ 7

CAPE LOOKOUT     0300            55     260/  8/  9 1018.3R
ONSLOW BAY 41036 0400            58 61  270/ 12/ 14 1019.3R
WVE H/P(F/S)=  3/ 6 WND WVE H/P(F/S)=  2/ 6 SWL H/P/D(F/S/D)=  2/170/ 6

5 WRITEBCH 41038 0300            51 55  260/ 10/ 12 1019.0R
MASONBORO  41110 0400               55                N/A
WVE H/P(F/S)=  2/10 WND WVE H/P(F/S)=  2/10

WILM HARBR 41108 0400               55                N/A
WVE H/P(F/S)=  2/11 WND WVE H/P(F/S)=  2/10

27WRITEBCH 41037 0300            55 62  280/ 12/ 16 1019.9R
FRYING PAN 41013 0400            60 65  270/ 10/ 12 1019.9R
WVE H/P(F/S)=  2/10 WND WVE H/P(F/S)=  2/ 4 SWL H/P/D(F/S/D)=  2/110/10

SUNST NRSH 41024 0300            54     250/  8/ 10   N/A
CAPRS NRSH 41029 0300            55     270/  8/ 10   N/A
EDISTO     41004 0400            61 73  280/  8/ 10 1019.4F
WVE H/P(F/S)=  2/10 SWL H/P/D(F/S/D)=  2/10



..........OFFSHORE BUOYS BEYOND 100 NM OFFSHORE...........
.....IN A TRIANGLE---HAT TO BERMUDA TO BAHAMAS TO HAT.....


STATION/POSITION TIME  SKY/WX   TEMP    WIND        PRES    VSBY
                                AIR SEA DIR/SP/G
                 (UTC)          (F)     (DEG/KT/KT) (MB)    (MI)
150E HAT   41001 NOT AVBL
W BERMUDA  41048 0348            69 73  280/ 12/ 16 1017.6R
WVE H/P(F/S)=  7/ 9 WND WVE H/P(F/S)=  3/ 5 SWL H/P/D(F/S/D)=  7/300/ 9

ATLANTIC S 41049 0251            73 77  320/  4/  8 1019.4
WVE H/P(F/S)=  5/10 WND WVE H/P(F/S)=  2/ 4 SWL H/P/D(F/S/D)=  5/ 50/10

E BAHAMAS  41046 0258            75 80   10/  4/  6 1019.7
WVE H/P(F/S)=  4/10 SWL H/P/D(F/S/D)=  3/ 50/10

NE BAHAMAS 41047 0257            74 78  270/  8/ 12 1020.4
WVE H/P(F/S)=  3/11 WND WVE H/P(F/S)=  2/ 4 SWL H/P/D(F/S/D)=  3/ 70/11

120E CANVRL41010 0400            70 76  280/ 10/ 14 1021.0R
WVE H/P(F/S)=  3/ 5 WND WVE H/P(F/S)=  2/ 4 SWL H/P/D(F/S/D)=  3/300/ 5


END



USA.gov is the U.S. government's official web portal to all federal, state and local government web resources and services.